time_stamp(utc),avg(mph),gust(mph),direction(deg),12m_air_temp(f),sonic_u(cm/s),sonic_v(cm/s),sonic_w(cm/s),pressure,2m_air_temp(f),pyranometer(W/m^2)
"2017-07-30 00:00:21+00",28.0,31.0,,71.5,919,786,30,1007.91,70.8,0
"2017-07-30 00:05:21+00",26.6,30.6,,71.4,876,747,24,1008.01,70.7,0
"2017-07-30 00:10:21+00",22.1,28.1,,71.3,721,621,31,1008.05,70.8,0
"2017-07-30 00:15:21+00",27.2,34.2,,71.5,793,833,10,1008.14,70.8,0
"2017-07-30 00:20:21+00",25.2,30.2,,71.5,727,774,25,1008.18,70.9,0
"2017-07-30 00:25:21+00",24.2,29.2,,71.6,642,802,23,1008.19,70.8,0
"2017-07-30 00:30:21+00",26.1,33.1,,71.7,743,806,13,1008.17,70.9,0
"2017-07-30 00:35:21+00",24.1,27.1,,71.7,668,761,21,1008.26,70.9,0
"2017-07-30 00:40:21+00",20.7,23.7,,71.7,593,645,20,1008.31,71,0
"2017-07-30 00:45:21+00",24.8,27.8,,71.8,699,775,32,1008.18,70.9,0
"2017-07-30 00:50:21+00",24.4,28.4,,72,689,772,28,1008.36,71.1,0
"2017-07-30 00:55:21+00",27.1,30.1,,72.1,817,803,18,1008.56,71.2,0
"2017-07-30 01:00:21+00",24.4,26.4,,72.1,657,802,21,1008.73,71.3,0
"2017-07-30 01:05:21+00",18.2,21.2,,72,488,591,19,1008.84,71.3,0
"2017-07-30 01:10:21+00",26.6,28.6,,72.2,810,776,3,1008.82,71.3,0
"2017-07-30 01:15:21+00",27.7,31.7,,72.2,869,796,11,1008.64,71.3,0
"2017-07-30 01:20:21+00",26.0,31.0,,72.1,800,757,10,1008.77,71.3,0
"2017-07-30 01:25:21+00",24.5,27.5,,72.1,791,694,28,1008.86,71.3,0
"2017-07-30 01:30:21+00",21.7,25.7,,72,678,637,32,1009.1,71.3,0
"2017-07-30 01:35:21+00",24.9,30.9,,72.1,780,720,7,1009.12,71.3,0
"2017-07-30 01:40:21+00",23.6,28.6,,72.2,805,642,32,1009.12,71.3,0
"2017-07-30 01:45:21+00",20.7,22.7,,72,668,591,30,1009.23,71.3,0
"2017-07-30 01:50:21+00",26.1,29.1,,72.1,832,754,34,1009.22,71.2,0
"2017-07-30 01:55:21+00",21.4,24.4,,72,678,620,46,1009.33,71.3,0
"2017-07-30 02:00:21+00",23.5,28.5,,72,719,681,13,1009.43,71.2,0
"2017-07-30 02:05:21+00",23.1,27.1,,72,644,724,3,1009.59,71.2,0
"2017-07-30 02:10:21+00",17.6,19.6,,71.9,491,554,7,1009.72,71.2,0
"2017-07-30 02:15:21+00",21.3,26.3,,71.9,603,669,19,1009.69,71.1,0
"2017-07-30 02:20:21+00",22.4,26.4,,72,594,730,-2,1009.75,71.3,0
"2017-07-30 02:25:21+00",21.4,25.4,,71.9,596,669,5,1009.8,71.2,0
"2017-07-30 02:30:21+00",21.4,26.4,,71.9,635,637,25,1009.88,71.2,0
"2017-07-30 02:35:21+00",22.4,25.4,,71.9,603,740,-2,1009.82,71.2,0
"2017-07-30 02:40:21+00",16.6,18.6,,71.7,439,550,12,1009.89,71.1,0
"2017-07-30 02:45:21+00",19.0,21.0,,71.7,497,628,6,1009.81,70.9,0
"2017-07-30 02:50:21+00",18.1,22.1,,71.7,425,649,14,1009.81,70.9,0
"2017-07-30 02:55:21+00",17.4,20.4,,71.6,439,593,9,1009.9,70.8,0
"2017-07-30 03:00:21+00",19.0,21.0,,71.6,522,606,-1,1010.01,70.7,0
"2017-07-30 03:05:21+00",20.3,24.3,,71.7,583,670,-6,1010.03,70.7,0
"2017-07-30 03:10:21+00",16.6,19.6,,71.5,458,571,-8,1010.02,70.8,0
"2017-07-30 03:15:21+00",19.7,22.7,,71.5,603,632,15,1010.08,70.6,0
"2017-07-30 03:20:21+00",18.4,23.4,,71.1,433,692,-23,1010.13,70.3,0
"2017-07-30 03:25:21+00",19.0,21.0,,71.3,521,653,-18,1010.21,70.3,0
"2017-07-30 03:30:21+00",23.0,27.0,,71.5,763,676,1,1010.18,70.4,0
"2017-07-30 03:35:21+00",21.4,24.4,,71.7,659,665,-14,1010.17,70.7,0
"2017-07-30 03:40:21+00",25.9,31.9,,71.7,868,762,25,1010.23,70.7,0
"2017-07-30 03:45:21+00",27.1,31.1,,71.7,942,788,23,1010.31,70.8,0
"2017-07-30 03:50:21+00",24.0,26.0,,71.6,883,643,-10,1010.48,70.8,0
"2017-07-30 03:55:21+00",21.6,24.6,,71.5,713,643,-23,1010.42,70.7,0
"2017-07-30 04:00:21+00",21.6,24.6,,71.6,747,615,-11,1010.4,70.7,0
"2017-07-30 04:05:21+00",20.8,23.8,,71.5,598,672,-31,1010.38,70.7,0
"2017-07-30 04:10:21+00",20.6,23.6,,71.3,693,605,-13,1010.27,70.5,0
"2017-07-30 04:15:21+00",24.6,26.6,,71.5,788,736,-53,1010.31,70.5,0
"2017-07-30 04:20:21+00",25.1,28.1,,71.5,746,777,-46,1010.25,70.5,0
"2017-07-30 04:25:21+00",21.0,25.0,,71.3,628,665,-27,1010.31,70.5,0
"2017-07-30 04:30:21+00",16.3,20.3,,71.1,425,546,-29,1010.3,70.4,0
"2017-07-30 04:35:21+00",19.9,22.9,,70.9,503,714,-25,1010.21,70,0
"2017-07-30 04:40:21+00",19.4,22.4,,71,485,704,-31,1010.31,70,0
"2017-07-30 04:45:21+00",20.7,25.7,,71.2,484,774,-21,1010.33,70.2,0
"2017-07-30 04:50:21+00",19.6,23.6,,70.8,403,765,-26,1010.29,69.9,0
"2017-07-30 04:55:21+00",15.2,19.2,,70.8,325,584,-21,1010.34,69.9,0
"2017-07-30 05:00:21+00",17.3,24.3,,70.2,283,693,-36,1010.37,69.4,0
"2017-07-30 05:05:21+00",13.8,15.8,,69.2,118,579,-54,1010.39,68.7,0
"2017-07-30 05:10:21+00",15.0,18.0,,68.8,33,674,-36,1010.39,68.1,0
"2017-07-30 05:15:21+00",12.5,15.5,,68.2,-80,525,-43,1010.45,67.7,0
"2017-07-30 05:20:21+00",11.2,12.2,,66.8,-44,462,-68,1010.54,67.1,0
"2017-07-30 05:25:21+00",11.6,13.6,,67,61,485,-65,1010.46,66.5,0
"2017-07-30 05:30:21+00",13.9,15.9,,67.8,11,605,-69,1010.49,66.7,0
"2017-07-30 05:35:21+00",11.7,12.7,,67.3,61,493,-63,1010.51,66.4,0
"2017-07-30 05:40:21+00",10.1,12.1,,67,-63,407,-48,1010.5,66.3,0
"2017-07-30 05:45:21+00",11.4,13.4,,66.8,-27,464,-71,1010.49,66.1,0
"2017-07-30 05:50:21+00",10.5,11.5,,66.6,-48,413,-73,1010.49,65.9,0
"2017-07-30 05:55:21+00",12.0,14.0,,66.5,-35,492,-88,1010.47,65.8,0
"2017-07-30 06:00:21+00",13.4,14.4,,66.6,-33,570,-71,1010.46,65.7,0
"2017-07-30 06:05:21+00",11.5,13.5,,66.6,-16,472,-69,1010.53,65.7,0
"2017-07-30 06:10:21+00",12.8,15.8,,66.6,42,546,-70,1010.51,65.6,0
"2017-07-30 06:15:21+00",13.3,16.3,,67,35,579,-70,1010.49,65.8,0
"2017-07-30 06:20:21+00",15.2,17.2,,67,33,669,-61,1010.42,65.8,0
"2017-07-30 06:25:21+00",12.8,15.8,,66.6,-6,540,-69,1010.48,65.8,0
"2017-07-30 06:30:21+00",13.7,15.7,,66.7,52,604,-54,1010.48,65.7,0
"2017-07-30 06:35:21+00",14.4,17.4,,66.6,103,631,-28,1010.45,65.6,0
"2017-07-30 06:40:21+00",13.1,17.1,,66.7,102,576,-34,1010.32,65.6,0
"2017-07-30 06:45:21+00",14.6,16.6,,66.6,124,635,-34,1010.41,65.5,0
"2017-07-30 06:50:21+00",14.8,15.8,,66.5,104,652,-33,1010.48,65.5,0
"2017-07-30 06:55:21+00",15.3,16.3,,66.4,88,679,-54,1010.5,65.3,0
"2017-07-30 07:00:21+00",13.7,16.7,,66.2,87,599,-35,1010.56,65.2,0
"2017-07-30 07:05:21+00",13.9,15.9,,66.3,100,606,-33,1010.59,65.2,0
"2017-07-30 07:10:21+00",13.7,15.7,,66.2,109,586,-42,1010.67,65.1,0
"2017-07-30 07:15:21+00",13.3,15.3,,66.2,92,576,-32,1010.71,65,0
"2017-07-30 07:20:21+00",14.0,17.0,,66.2,117,596,-42,1010.77,65,0
"2017-07-30 07:25:21+00",12.9,14.9,,66.1,94,555,-30,1010.83,64.9,0
"2017-07-30 07:30:21+00",12.9,14.9,,65.9,96,560,-33,1010.82,64.8,0
"2017-07-30 07:35:21+00",13.1,14.1,,65.4,-9,559,-56,1010.94,64.6,0
"2017-07-30 07:40:21+00",13.9,14.9,,64.6,-16,598,-53,1011.04,64.1,0
"2017-07-30 07:45:21+00",12.2,14.2,,64.4,-1,519,-51,1011,63.7,0
"2017-07-30 07:50:21+00",13.3,15.3,,64.3,-19,578,-49,1011.02,63.4,0
"2017-07-30 07:55:21+00",12.8,15.8,,63.8,-58,549,-41,1011.13,63.2,0
"2017-07-30 08:00:21+00",13.4,16.4,,63.2,6,580,-56,1011.17,62.7,0
"2017-07-30 08:05:21+00",14.0,15.0,,63,-5,624,-30,1011.16,62.4,0
"2017-07-30 08:10:21+00",12.1,14.1,,62.8,10,539,-39,1011.21,62.2,0
"2017-07-30 08:15:21+00",13.4,14.4,,62.8,-25,579,-61,1011.34,61.9,0
"2017-07-30 08:20:21+00",13.3,15.3,,62.8,-23,574,-60,1011.29,61.8,0
"2017-07-30 08:25:21+00",13.2,16.2,,62.6,-14,575,-58,1011.3,61.7,0
"2017-07-30 08:30:21+00",13.4,16.4,,62.4,-20,586,-54,1011.31,61.5,0
"2017-07-30 08:35:21+00",13.9,16.9,,62.4,-9,639,-19,1011.32,61.3,0
"2017-07-30 08:40:21+00",13.5,15.5,,62.2,-11,590,-43,1011.37,61.2,0
"2017-07-30 08:45:21+00",14.2,16.2,,62.1,11,633,-30,1011.38,61.1,0
"2017-07-30 08:50:21+00",14.1,16.1,,62.1,8,633,-12,1011.29,61,0
"2017-07-30 08:55:21+00",14.1,16.1,,62.3,15,630,-43,1011.4,61,0
"2017-07-30 09:00:21+00",13.2,15.2,,62.5,52,572,-56,1011.43,61.1,0
"2017-07-30 09:05:21+00",14.2,17.2,,63,101,609,-56,1011.42,61.4,0
"2017-07-30 09:10:21+00",13.6,17.6,,63,39,597,-44,1011.55,61.6,0
"2017-07-30 09:15:21+00",14.2,17.2,,62.8,87,620,14,1011.54,61.4,0
"2017-07-30 09:20:21+00",14.0,19.0,,62.6,92,602,-12,1011.64,61.3,0
"2017-07-30 09:25:21+00",14.3,16.3,,62.4,-61,626,18,1011.65,61.2,0
"2017-07-30 09:30:21+00",14.8,15.8,,61.4,-58,650,15,1011.76,60.8,0
"2017-07-30 09:35:21+00",14.9,16.9,,60.9,-40,662,15,1011.75,60.3,0
"2017-07-30 09:40:21+00",14.7,16.7,,60.6,-3,655,17,1011.87,59.9,0
"2017-07-30 09:45:21+00",14.7,17.7,,60.5,0,645,16,1012,59.7,0
"2017-07-30 09:50:21+00",15.2,17.2,,60.6,-5,673,13,1012.06,59.5,0
"2017-07-30 09:55:21+00",12.8,15.8,,60.6,-43,569,33,1012.19,59.5,0
"2017-07-30 10:00:21+00",14.2,17.2,,60.5,-7,627,14,1012.25,59.4,0
"2017-07-30 10:05:21+00",14.0,16.0,,60.5,-75,606,24,1012.32,59.4,0
"2017-07-30 10:10:21+00",14.7,16.7,,60.1,-29,651,8,1012.39,59.2,0
"2017-07-30 10:15:21+00",12.8,14.8,,59.9,-49,557,13,1012.5,59.2,0
"2017-07-30 10:20:21+00",13.2,15.2,,60,-12,584,19,1012.51,59.2,0
"2017-07-30 10:25:21+00",14.8,17.8,,60.2,-8,649,17,1012.54,59.5,0
"2017-07-30 10:30:21+00",13.7,15.7,,60.4,-23,607,13,1012.51,59.8,0
"2017-07-30 10:35:21+00",12.5,15.5,,60.5,-11,554,13,1012.58,60.1,2.1
"2017-07-30 10:40:21+00",13.7,16.7,,60.7,-27,604,13,1012.65,60.5,8
"2017-07-30 10:45:21+00",13.5,15.5,,60.7,-10,593,19,1012.76,60.8,15.3
"2017-07-30 10:50:21+00",14.7,16.7,,61,-33,642,25,1012.81,61.1,25
"2017-07-30 10:55:21+00",14.4,17.4,,61,7,635,6,1012.81,61.4,31.9
"2017-07-30 11:00:21+00",12.6,16.6,,61.1,46,545,21,1012.88,61.6,42.8
"2017-07-30 11:05:21+00",13.4,15.4,,61.4,53,579,13,1012.93,61.9,50.9
"2017-07-30 11:10:21+00",13.5,14.5,,61.7,60,581,10,1012.95,62.3,61.3
"2017-07-30 11:15:21+00",15.0,17.0,,62,31,655,16,1013.06,62.7,70.9
"2017-07-30 11:20:21+00",13.0,15.0,,62.2,8,564,-1,1013.1,63.2,80.9
"2017-07-30 11:25:21+00",14.1,18.1,,62.2,4,617,6,1013.1,63.6,75.8
"2017-07-30 11:30:21+00",11.0,14.0,,62.4,-17,486,29,1013.14,63.7,101.5
"2017-07-30 11:35:21+00",13.0,16.0,,62.6,47,558,11,1013.12,63.9,111.1
"2017-07-30 11:40:21+00",12.5,15.5,,62.7,-3,556,30,1013.17,64.2,122.6
"2017-07-30 11:45:21+00",13.3,15.3,,63,15,584,25,1013.1,64.4,132.8
"2017-07-30 11:50:21+00",12.6,14.6,,63.4,14,547,27,1013.24,64.9,144.6
"2017-07-30 11:55:21+00",12.7,16.7,,63.6,13,560,22,1013.24,65.2,154.1
"2017-07-30 12:00:21+00",13.9,15.9,,64.1,72,600,0,1013.27,65.6,165.5
"2017-07-30 12:05:21+00",13.6,14.6,,64.3,14,598,3,1013.33,65.9,175.5
"2017-07-30 12:10:21+00",14.0,16.0,,64.5,85,591,20,1013.35,66.2,185.9
"2017-07-30 12:15:21+00",14.0,17.0,,64.8,58,609,33,1013.39,66.4,193.8
"2017-07-30 12:20:21+00",14.9,16.9,,65.2,61,638,14,1013.47,66.7,206.9
"2017-07-30 12:25:21+00",13.0,16.0,,65.5,66,565,29,1013.61,67.1,213.8
"2017-07-30 12:30:21+00",14.6,17.6,,65.6,133,609,-10,1013.59,67.2,223.3
"2017-07-30 12:35:21+00",14.7,16.7,,66.1,74,631,8,1013.72,67.8,229.8
"2017-07-30 12:40:21+00",13.2,14.2,,66.4,37,577,20,1013.82,68.2,237.6
"2017-07-30 12:45:21+00",14.9,16.9,,66.9,107,638,0,1013.78,68.8,244.2
"2017-07-30 12:50:21+00",12.3,15.3,,67.1,106,509,3,1013.85,69,254.2
"2017-07-30 12:55:21+00",12.8,15.8,,67.5,75,547,13,1013.89,69.4,263.8
"2017-07-30 13:00:21+00",12.9,16.9,,67.8,116,536,5,1013.94,69.8,266.1
"2017-07-30 13:05:21+00",15.7,18.7,,68.4,190,646,-11,1014.03,70.2,277.3
"2017-07-30 13:10:21+00",17.5,20.5,,69,328,656,2,1014.04,70.8,286.4
"2017-07-30 13:15:21+00",14.3,21.3,,69.7,249,549,12,1013.98,71.3,285
"2017-07-30 13:20:21+00",18.2,21.2,,69.7,459,617,-3,1013.98,71.6,300.3
"2017-07-30 13:25:21+00",13.9,16.9,,70,277,514,21,1013.97,71.9,308.3
"2017-07-30 13:30:21+00",16.3,19.3,,69.9,390,571,19,1013.99,72,317
"2017-07-30 13:35:21+00",15.7,17.7,,70.5,344,562,33,1013.95,72.6,324.5
"2017-07-30 13:40:21+00",17.9,19.9,,70.1,472,580,-5,1014.04,72.5,333.5
"2017-07-30 13:45:21+00",13.6,15.6,,70.4,352,456,31,1014.13,72.7,342.3
"2017-07-30 13:50:21+00",17.5,19.5,,70.1,487,542,2,1014.21,72.6,348.8
"2017-07-30 13:55:21+00",16.8,18.8,,70.7,455,532,-5,1014.16,73.1,360
"2017-07-30 14:00:21+00",18.2,21.2,,70.8,380,677,2,1014.21,73.4,368.2
"2017-07-30 14:05:21+00",18.9,22.9,,71.1,513,614,16,1014.21,73.6,379.5
"2017-07-30 14:10:21+00",20.3,24.3,,71,525,677,7,1014.36,73.5,388.2
"2017-07-30 14:15:21+00",17.8,19.8,,71,491,553,19,1014.39,73.5,396.2
"2017-07-30 14:20:21+00",19.8,22.8,,71.1,523,647,3,1014.39,73.4,405.2
"2017-07-30 14:25:21+00",21.0,25.0,,70.9,596,657,7,1014.39,73.4,414.9
"2017-07-30 14:30:21+00",18.8,21.8,,71.1,604,527,14,1014.37,73.6,425.2
"2017-07-30 14:35:21+00",18.4,21.4,,71.5,502,584,15,1014.49,74.1,432.5
"2017-07-30 14:40:21+00",17.6,20.6,,71.2,559,500,15,1014.5,73.8,442.3
"2017-07-30 14:45:21+00",17.0,20.0,,71.8,525,502,30,1014.53,74.2,449.8
"2017-07-30 14:50:21+00",17.2,20.2,,71.8,455,574,22,1014.64,74.4,459
"2017-07-30 14:55:21+00",20.6,24.6,,72,672,578,36,1014.61,74.4,467.1
"2017-07-30 15:00:21+00",21.1,24.1,,71.8,724,571,31,1014.71,74.4,475.4
"2017-07-30 15:05:21+00",20.2,22.2,,71.7,581,598,-1,1014.77,74.3,484.9
"2017-07-30 15:10:21+00",19.7,21.7,,71.8,652,543,24,1014.82,74.3,491.7
"2017-07-30 15:15:21+00",17.5,20.5,,72.1,543,495,41,1014.91,74.5,499.4
"2017-07-30 15:20:21+00",19.1,22.1,,72.3,632,531,37,1014.91,74.8,506
"2017-07-30 15:25:21+00",21.6,24.6,,72,639,633,3,1014.86,74.8,511.9
"2017-07-30 15:30:21+00",21.4,22.4,,72.2,612,645,8,1014.96,74.7,519
"2017-07-30 15:35:21+00",19.2,22.2,,72.2,737,431,34,1014.92,74.7,525.4
"2017-07-30 15:40:21+00",20.2,22.2,,72.1,738,513,25,1014.94,74.8,530.3
"2017-07-30 15:45:21+00",20.6,23.6,,72.2,718,546,17,1014.95,74.8,535
"2017-07-30 15:50:21+00",20.8,23.8,,72.2,710,565,0,1015.02,74.7,541
"2017-07-30 15:55:21+00",16.7,19.7,,72.4,608,407,48,1015.16,74.8,544.4
"2017-07-30 16:00:21+00",20.6,23.6,,72.2,670,575,13,1015.21,74.9,551.6
"2017-07-30 16:05:21+00",17.7,19.7,,72.6,659,421,24,1015.22,75.1,552.5
"2017-07-30 16:10:21+00",19.1,21.1,,72.7,605,547,12,1015.28,75.3,555.1
"2017-07-30 16:15:21+00",18.2,20.2,,72.5,571,516,24,1015.18,75.2,562.1
"2017-07-30 16:20:21+00",18.2,22.2,,72.8,708,403,42,1015.2,75.4,564.5
"2017-07-30 16:25:21+00",18.9,20.9,,72.8,715,423,38,1015.22,75.5,566.5
"2017-07-30 16:30:21+00",19.4,21.4,,72.6,633,546,25,1015.17,75.3,568.5
"2017-07-30 16:35:21+00",17.3,19.3,,72.7,615,439,19,1015.17,75.2,568.8
"2017-07-30 16:40:21+00",16.8,20.8,,73,673,358,18,1015.22,75.5,571.2
"2017-07-30 16:45:21+00",19.1,22.1,,73,680,490,47,1015.35,75.3,574.3
"2017-07-30 16:50:21+00",18.2,21.2,,72.7,648,474,35,1015.3,75.3,577
"2017-07-30 16:55:21+00",20.3,22.3,,72.8,708,542,14,1015.23,75.2,576.9
"2017-07-30 17:00:21+00",21.1,22.1,,73,807,498,36,1015.28,75.3,517
"2017-07-30 17:05:21+00",16.9,18.9,,72.8,573,459,8,1015.38,75.4,578.2
"2017-07-30 17:10:21+00",18.7,20.7,,72.7,691,462,21,1015.33,75.4,574.8
"2017-07-30 17:15:21+00",16.7,18.7,,72.8,639,373,43,1015.35,75.3,575.9
"2017-07-30 17:20:21+00",18.1,21.1,,73,649,462,36,1015.33,75.5,571
"2017-07-30 17:25:21+00",17.0,20.0,,73.1,668,361,40,1015.35,75.6,570.6
"2017-07-30 17:30:21+00",16.5,19.5,,73.2,621,379,45,1015.44,75.5,567.2
"2017-07-30 17:35:21+00",19.5,21.5,,73.1,725,481,32,1015.45,75.7,565.4
"2017-07-30 17:40:21+00",18.5,20.5,,73,727,400,2,1015.58,75.5,561.3
"2017-07-30 17:45:21+00",16.3,18.3,,73.1,700,272,20,1015.66,76,560
"2017-07-30 17:50:21+00",17.1,21.1,,73,742,247,14,1015.62,76.3,555.1
"2017-07-30 17:55:21+00",15.8,17.8,,73.2,644,306,16,1015.63,76.3,554.1
"2017-07-30 18:00:21+00",16.5,19.5,,73.3,715,235,66,1015.69,76.3,550.8
"2017-07-30 18:05:21+00",16.9,21.9,,72.9,689,326,68,1015.67,76,547.5
"2017-07-30 18:10:21+00",18.7,20.7,,73.1,770,333,11,1015.67,76,544.2
"2017-07-30 18:15:21+00",17.6,20.6,,73,771,218,38,1015.67,76,540.9
"2017-07-30 18:20:21+00",16.6,19.6,,73,699,284,25,1015.7,76,534.7
"2017-07-30 18:25:21+00",15.9,18.9,,73.3,686,228,80,1015.68,75.9,535.3
"2017-07-30 18:30:21+00",16.9,19.9,,73,727,226,58,1015.79,75.9,526.4
"2017-07-30 18:35:21+00",19.5,21.5,,72.7,839,301,14,1015.69,76,524.2
"2017-07-30 18:40:21+00",18.8,20.8,,72.8,783,331,18,1015.77,75.8,518
"2017-07-30 18:45:21+00",19.8,22.8,,72.8,839,318,18,1015.8,75.8,513.3
"2017-07-30 18:50:21+00",18.4,20.4,,72.7,796,261,45,1015.77,75.6,508.7
"2017-07-30 18:55:21+00",17.6,20.6,,73,727,321,59,1015.79,75.8,500.1
"2017-07-30 19:00:21+00",15.9,16.9,,72.8,651,288,8,1015.79,75.8,491.6
"2017-07-30 19:05:21+00",15.9,17.9,,72.9,669,266,21,1015.85,75.9,484.9
"2017-07-30 19:10:21+00",16.7,18.7,,72.8,642,377,25,1015.82,75.6,482.1
"2017-07-30 19:15:21+00",17.2,20.2,,72.9,731,292,12,1015.82,75.6,473.3
"2017-07-30 19:20:21+00",16.2,18.2,,73,710,190,45,1015.81,75.8,470.2
"2017-07-30 19:25:21+00",16.4,18.4,,73,705,245,32,1015.95,76,460.8
"2017-07-30 19:30:21+00",16.4,18.4,,72.7,716,194,10,1015.93,75.7,452.7
"2017-07-30 19:35:21+00",17.2,18.2,,72.7,736,257,37,1015.87,75.6,446.8
"2017-07-30 19:40:21+00",17.6,20.6,,72.7,772,154,46,1015.96,75.7,438.6
"2017-07-30 19:45:21+00",16.2,19.2,,72.8,712,180,40,1015.92,75.5,429.4
"2017-07-30 19:50:21+00",15.9,17.9,,72.8,710,69,39,1015.94,75.4,424.3
"2017-07-30 19:55:21+00",15.3,17.3,,73,661,231,32,1015.86,75.7,414.7
"2017-07-30 20:00:21+00",16.7,17.7,,72.8,724,193,36,1015.89,75.6,405
"2017-07-30 20:05:21+00",16.8,18.8,,72.7,728,224,32,1015.77,75.7,399
"2017-07-30 20:10:21+00",15.7,17.7,,72.7,676,195,34,1015.77,75.6,388.7
"2017-07-30 20:15:21+00",16.6,18.6,,72.7,739,62,23,1015.71,75.5,378.3
"2017-07-30 20:20:21+00",14.8,16.8,,72.9,649,159,28,1015.7,75.6,368.4
"2017-07-30 20:25:21+00",16.4,18.4,,72.7,724,100,15,1015.68,75.6,361.8
"2017-07-30 20:30:21+00",14.4,16.4,,72.9,641,103,47,1015.64,75.4,351
"2017-07-30 20:35:21+00",16.2,18.2,,73,728,122,38,1015.67,75.7,340.3
"2017-07-30 20:40:21+00",16.4,18.4,,73,726,87,44,1015.67,75.5,331.9
"2017-07-30 20:45:21+00",14.4,15.4,,73.1,641,61,41,1015.62,75.5,323.5
"2017-07-30 20:50:21+00",13.7,15.7,,72.9,609,106,31,1015.63,75.7,314.5
"2017-07-30 20:55:21+00",16.9,17.9,,73,746,122,23,1015.62,75.6,304.9
"2017-07-30 21:00:21+00",15.9,17.9,,72.9,703,88,31,1015.68,75.4,295.5
"2017-07-30 21:05:21+00",14.1,16.1,,72.8,623,95,22,1015.68,75.3,285.7
"2017-07-30 21:10:21+00",15.7,16.7,,73.1,694,107,46,1015.74,75.2,276.2
"2017-07-30 21:15:21+00",16.3,19.3,,72.9,729,30,33,1015.83,74.9,271.7
"2017-07-30 21:20:21+00",17.0,19.0,,72.9,765,-31,11,1015.74,74.7,262
"2017-07-30 21:25:21+00",16.1,18.1,,72.8,723,46,24,1015.74,74.6,254
"2017-07-30 21:30:21+00",15.5,16.5,,72.8,690,52,21,1015.88,74.7,244.4
"2017-07-30 21:35:21+00",14.1,16.1,,72.9,625,-52,38,1015.82,74.5,234.5
"2017-07-30 21:40:21+00",15.0,16.0,,72.8,671,30,15,1015.91,74.5,223.8
"2017-07-30 21:45:21+00",15.4,16.4,,72.7,681,-84,2,1015.83,74.3,215.6
"2017-07-30 21:50:21+00",13.9,15.9,,72.7,623,32,7,1015.93,74.1,205.7
"2017-07-30 21:55:21+00",14.7,16.7,,72.9,656,-15,21,1015.99,74.1,197.8
"2017-07-30 22:00:21+00",15.1,17.1,,72.9,674,-19,7,1015.97,74.1,188.6
"2017-07-30 22:05:21+00",15.4,16.4,,72.9,685,-10,28,1015.89,73.9,179
"2017-07-30 22:10:21+00",14.9,16.9,,72.9,664,-14,-1,1015.96,73.9,167.8
"2017-07-30 22:15:21+00",14.3,16.3,,72.8,635,-67,0,1015.92,73.7,158.5
"2017-07-30 22:20:21+00",12.1,14.1,,72.9,543,-9,39,1015.87,73.7,146.6
"2017-07-30 22:25:21+00",14.2,16.2,,72.8,638,-1,11,1015.87,73.6,138.1
"2017-07-30 22:30:21+00",11.4,13.4,,72.9,509,-24,43,1015.89,73.7,126.6
"2017-07-30 22:35:21+00",12.5,13.5,,72.7,557,-76,12,1016,73.5,113.5
"2017-07-30 22:40:21+00",13.1,14.1,,72.7,572,-139,-13,1016.1,73.2,105.6
"2017-07-30 22:45:21+00",14.0,16.0,,72.6,606,-145,-11,1016.07,73,85.2
"2017-07-30 22:50:21+00",12.1,13.1,,72.5,536,-74,12,1016.1,72.8,85.7
"2017-07-30 22:55:21+00",13.7,15.7,,72.4,611,-55,6,1016.06,72.7,72.9
"2017-07-30 23:00:21+00",11.8,14.8,,72.4,505,-124,8,1016.12,72.5,65.1
"2017-07-30 23:05:21+00",13.7,14.7,,72.4,612,-88,10,1016.15,72.4,56.4
"2017-07-30 23:10:21+00",11.9,13.9,,72.2,523,-91,8,1016.08,72.2,47.2
"2017-07-30 23:15:21+00",12.4,14.4,,72,540,-114,1,1016.03,71.9,37.1
"2017-07-30 23:20:21+00",10.1,11.1,,72,430,-110,26,1016.19,71.7,28.9
"2017-07-30 23:25:21+00",14.1,16.1,,72,604,-164,3,1016.24,71.5,21.4
"2017-07-30 23:30:21+00",12.7,14.7,,71.8,529,-185,-5,1016.28,71.3,11.4
"2017-07-30 23:35:21+00",10.6,11.6,,71.8,460,-122,5,1016.33,71.1,4
"2017-07-30 23:40:21+00",9.8,10.8,,71.5,402,-148,3,1016.49,70.8,1.2
"2017-07-30 23:45:21+00",11.5,12.5,,71.5,474,-171,1,1016.52,70.6,0
"2017-07-30 23:50:21+00",11.6,13.6,,71.4,479,-196,-7,1016.5,70.4,0
"2017-07-30 23:55:21+00",10.5,11.5,,71.4,431,-169,-4,1016.53,70.2,0
